PRÉPARATION DES VOLS

Pour bien préparer vos sorties, pensez à télécharger la fiche technique de votre avion, la check-list, le manuel de vol, le devis de centrage ou encore un modèle de Log de Nav.

 

Type : 2 places train classique

Moteur : Continental 90 cv.

Performances : 140 km/h

Type : 2/3 places en instruction & entraînement (devis de centrage).

Moteur : Lycoming 4 cyl. à plat, 108 cv.

Performances : 180 km/h

Autonomie : 4 h soit environ 720 km franchissables.

Avionique : 1 radio com Bendix/King, 1 VOR, 1 transpondeur.

Type : 3/4 places instruction, entraînement, voyage.

Moteur : Lycoming 4 cyl. à plat, 120 cv.

Performances : 190 km/h

Autonomie : 4 h soit environ 760 km franchissables.

Avionique : 1 radio com Bendix/King, 1 VOR, 1 transpondeur mode S, intercom 2 voies type.

 

Type : 3/4 places instruction, entraînement, voyage.

Moteur : Lycoming 4 cyl. à plat, 120 cv.

Performances : 190 km/h

Autonomie : 4 h soit environ 760 km franchissables.

Avionique : 1 radio com Bendix/King, 1 VOR, 1 transpondeur mode S, intercom 2 voies type.

 

Type : 4 places, pour entraînement et voyage.

Moteur : Robin Lycoming 4 cyl. à plat, 160 cv.

Performances : 206 km/h

Autonomie : 3 h 30 min soit environ 720 km de distance franchissable.

Avionique : 1 radio com Bendix/King, 1 VOR, 1 transpondeur mode S, intercom 4 voies.

 

 

 

 

 

 

 

Type :

Moteur :

Performances :

Autonomie :

Avionique :

 

 

Type : 4 places, pour entraînement, voyage.

Moteur : Lycoming 4 cyl. à plat, 180 cv.

Performances : 220 km/h

Autonomie : 5 h30 soit environ 1200 km de distance franchissable.

Avionique : Radio intégrée au système GPS Garmin GNS 430, 2 VOR, 1 DME, 1 transpondeur mode S, pilote automatique 2 axes, intercom 4 voies et boite de mélange.

 

Télécharger l’aide mémoire de la radio GTR 225A

Télécharger l’aide mémoire de la radio GNC 255A

Télécharger un log de nav

Log 1

Cliquez sur le formulaire pour le télécharger

Log_1*Notice d’utilisation*

Ce Log de Nav a été optimisé pour rendre les calculs automatiques sous Excel. Indiquez simplement vos points de report, les altitudes et les distances en NM. La feuille calcule alors le temps sans vent pour chaque étape et donne le total, qu’elle convertit en heure-minutes. Elle calcule également la distance totale et la convertit en kilomètres. Enfin, elle affiche le résultat du devis carburant, calculé automatiquement par le 2ème feuillet. Vous pouvez également inscrire préalablement les fréquences Radio et Nav. Les autres cases sont à remplir pendant le vol : date, top départ, heure estimée (grisée), heure réelle,horamètre, Atis…
Bons vols à tous !
Guillaume

Log 2

Cliquez sur le formulaire pour le télécharger

Log_2

Log 3

 Cliquez sur le formulaire pour le télécharger

Log_3

L’alphabet Morse et l’alphabet international

Alphabet International

Nos coordonnées

Aéroclub Renault

Aérodrome de Chavenay

78450 Chavenay-Villepreux

telephone

Atis

Télécharger la VAC LFPX

 

Télécharger le calcul de centrage

Télécharger la feuille ATIS

Télécharger le mémo VFR 2020-2021

 

Télécharger le formulaire de prorogation SEP

METARS / TAF de Toussus, Evreux, Orly et Roissy

Toussus

LFPN 170300Z AUTO 25003KT 1200 1000 R25R/1300D BR OVC003 05/04 Q1034

TAF TAF AMD LFPN 132015Z 1320/1420 17005KT 5000 BKN025 TEMPO 1320/1324 2000 BR OVC008 PROB30 TEMPO 1320/1324 0800 FG OVC002

Evreux

LFOE 170300Z AUTO VRB03KT 0300 R22/0350N FG VV/// 05/05 Q1035 BECMG 0600 FG

TAF LFOE 170200Z 1703/1803 28004KT 0600 FG VV/// BECMG 1710/1712 6000 NSW SCT004 BECMG 1712/1714 BKN015 TEMPO 1800/1803 3000 BR NSC

Orly

LFPO 170300Z 25003KT 3000 BR BKN006 BKN015 05/05 Q1035 NOSIG

TAF AMD LFPO 170222Z 1702/1806 24003KT 3500 BR BKN007 TEMPO 1702/1710 2000 BR BKN004 PROB30 TEMPO 1703/1709 0600 FG VV/// BECMG 1710/1712 6000 NSW BKN015 TEMPO 1712/1723 3000 BR BKN008 TEMPO 1723/1806 3000 BR OVC003

Roissy

LFPG 170300Z 26003KT 2500 BR FEW002 BKN003 BKN007 05/05 Q1034 TEMPO 0800 FG BKN002

TAF LFPG 161700Z 1618/1724 19010KT 4000 BR BKN004 TX07/1715Z TN02/1724Z PROB40 TEMPO 1618/1710 2000 -RADZ BR BKN002 PROB40 TEMPO 1618/1621 6000 NSW BKN008 BECMG 1622/1624 30005KT PROB40 TEMPO 1622/1710 0300 FG VV/// BECMG 1710/1712 8000 NSW BKN008 BECMG 1712/1714 BKN011 BECMG 1715/1717 VRB02KT PROB40 TEMPO 1718/1724 2500 BR BKN006

Share This